This demonstration page uses our WeatherBlox Daily Observations layout. Learn more.

41.55636, -103.73856

Hourly Observations for August 6, 2018

Temp ( °F °C ) Dew Point ( °F °C ) Humidity (%) Winds ( mph kmh ) Pressure ( in mb ) Visibility ( mi km ) Precip ( " mm )
12:58 am 00:58 Mostly Cloudy with Showers 58 14.5 56 13.2 92 92 ENE 3 6 30.03 1017 8 12.874752 0.02 0.508
1:58 am 01:58 Mostly Cloudy with Fog 58 14.6 57 14 96 96 ENE 7 11 30.03 1017 3 4.828032 0.03 0.762
2:58 am 02:58 Mostly Cloudy with Fog 58 14.2 57 13.7 97 97 NE 5 7 30.06 1018 3 4.828032 0 0
3:58 am 03:58 Mostly Cloudy with Fog 58 14.6 57 14 96 96 N 3 6 30.06 1018 3 4.828032 0 0
4:58 am 04:58 Mostly Cloudy with Fog 58 14.3 57 13.8 97 97 Calm 30.06 1018 3 4.828032 0 0
5:58 am 05:58 Mostly Cloudy with Fog 58 14.3 57 13.8 97 97 NE 6 9 30.09 1019 1 1.609344 0 0
6:58 am 06:58 Cloudy with Fog 57 14 56 13.5 97 97 N 5 7 30.12 1020 0.5 0.804672 0 0
7:58 am 07:58 Mostly Cloudy with Fog 58 14.3 57 13.8 97 97 Calm 30.12 1020 0.25 0.402336 0 0
8:58 am 08:58 Cloudy with Mist and Fog 59 15 58 14.5 97 97 NNE 5 7 30.15 1021 2.25 3.621024 0 0
9:58 am 09:58 Cloudy 59 14.9 58 14.4 97 97 ENE 3 6 30.15 1021 8 12.874752 0 0
10:58 am 10:58 Cloudy 60 15.3 59 14.8 97 97 NNW 6 9 30.18 1022 10 16.09344 0 0
11:58 am 11:58 Cloudy 64 18 59 15 83 83 E 7 11 30.15 1021 10 16.09344 0 0
12:58 pm 12:58 Mostly Cloudy 68 19.8 59 15.2 75 75 ENE 9 15 30.15 1021 10 16.09344 0.01 0.254
1:58 pm 13:58 Partly Cloudy 69 20.6 58 14.5 68 68 NE 8 13 30.09 1019 10 16.09344 0 0
2:58 pm 14:58 Mostly Sunny 69 20.8 57 13.9 65 65 E 5 7 30.09 1019 10 16.09344 0 0
3:58 pm 15:58 Mostly Sunny 70 21 57 14 64 64 SE 5 7 30.09 1019 10 16.09344 0 0
4:58 pm 16:58 Sunny 70 21.1 59 15 68 68 ESE 8 13 30.06 1018 10 16.09344 0 0
5:58 pm 17:58 Sunny 70 21.2 58 14.2 64 64 ESE 12 19 30.09 1019 10 16.09344 0 0
6:58 pm 18:58 Sunny 68 20 59 15 73 73 ESE 9 15 30.09 1019 10 16.09344 0 0
7:58 pm 19:58 Sunny 65 18.4 59 14.9 80 80 SE 7 11 30.12 1020 10 16.09344 0 0
8:58 pm 20:58 Clear 61 16.2 58 14.4 89 89 ESE 8 13 30.12 1020 10 16.09344 0 0
9:58 pm 21:58 Clear 60 15.5 57 13.8 90 90 SSE 3 6 30.18 1022 10 16.09344 0 0
10:58 pm 22:58 Clear 59 15 56 13.2 89 89 SW 3 6 30.18 1022 10 16.09344 0 0
11:58 pm 23:58 Clear 58 14.3 55 12.9 91 91 WSW 6 9 30.15 1021 10 16.09344 0 0

Powered by AerisWeather